Time,TemperatureF,DewpointF,PressureIn,WindDirection,WindDirectionDegrees,WindSpeedMPH,WindSpeedGustMPH,Humidity,HourlyPrecipIn,Conditions,Clouds,dailyrainin,SoftwareType,DateUTC
2013-08-04 00:04:00,51.0,50.7,29.86,WNW,292,2.3,0.0,99,0.00,CLR,,0.00,WeatherDisplay:10.37,2013-08-04 07:04:00,
2013-08-04 00:09:00,51.0,50.7,29.86,WNW,292,0.0,0.0,99,0.00,CLR,,0.00,WeatherDisplay:10.37,2013-08-04 07:09:00,
2013-08-04 00:14:00,50.0,49.5,29.86,WNW,292,0.0,0.0,98,0.00,CLR,,0.00,WeatherDisplay:10.37,2013-08-04 07:14:00,
2013-08-04 00:19:00,50.0,49.5,29.86,WNW,292,0.0,0.0,98,0.00,CLR,,0.00,WeatherDisplay:10.37,2013-08-04 07:19:00,
2013-08-04 00:24:00,49.0,48.7,29.86,WNW,292,0.0,0.0,99,0.00,CLR,,0.00,WeatherDisplay:10.37,2013-08-04 07:24:00,
2013-08-04 00:29:00,49.0,49.0,29.86,WNW,292,0.0,0.0,100,0.00,CLR,,0.00,WeatherDisplay:10.37,2013-08-04 07:29:00,
2013-08-04 00:34:00,49.0,49.0,29.86,WNW,292,0.0,0.0,100,0.00,CLR,,0.00,WeatherDisplay:10.37,2013-08-04 07:34:00,
2013-08-04 00:39:00,49.0,48.7,29.86,WNW,292,0.0,0.0,99,0.00,CLR,,0.00,WeatherDisplay:10.37,2013-08-04 07:39:00,
2013-08-04 00:44:00,49.0,48.7,29.86,WNW,292,0.0,0.0,99,0.00,CLR,,0.00,WeatherDisplay:10.37,2013-08-04 07:44:00,
2013-08-04 00:49:00,49.0,48.7,29.86,WNW,292,0.0,0.0,99,0.00,CLR,,0.00,WeatherDisplay:10.37,2013-08-04 07:49:00,
2013-08-04 00:54:00,49.0,49.0,29.86,WNW,292,0.0,0.0,100,0.00,CLR,,0.00,WeatherDisplay:10.37,2013-08-04 07:54:00,
2013-08-04 00:59:00,49.0,49.0,29.86,WNW,292,0.0,0.0,100,0.00,CLR,,0.00,WeatherDisplay:10.37,2013-08-04 07:59:00,
2013-08-04 01:04:00,49.0,48.7,29.86,WNW,292,0.0,0.0,99,0.00,CLR,,0.00,WeatherDisplay:10.37,2013-08-04 08:04:00,
2013-08-04 01:09:00,48.0,47.7,29.86,WNW,292,0.0,0.0,99,0.00,CLR,,0.00,WeatherDisplay:10.37,2013-08-04 08:09:00,
2013-08-04 01:14:00,48.0,47.7,29.86,WNW,292,0.0,0.0,99,0.00,CLR,,0.00,WeatherDisplay:10.37,2013-08-04 08:14:00,
2013-08-04 01:19:00,48.0,48.0,29.86,WNW,292,0.0,0.0,100,0.00,CLR,,0.00,WeatherDisplay:10.37,2013-08-04 08:19:00,
2013-08-04 01:24:00,48.0,48.0,29.86,WNW,292,0.0,0.0,100,0.00,CLR,,0.00,WeatherDisplay:10.37,2013-08-04 08:24:00,
2013-08-04 01:29:00,48.0,47.7,29.86,WNW,292,0.0,0.0,99,0.00,CLR,,0.00,WeatherDisplay:10.37,2013-08-04 08:29:00,
2013-08-04 01:34:00,48.0,48.0,29.86,WNW,292,0.0,0.0,100,0.00,CLR,,0.00,WeatherDisplay:10.37,2013-08-04 08:34:00,
2013-08-04 01:39:00,48.0,48.0,29.85,WNW,292,0.0,0.0,100,0.00,CLR,,0.00,WeatherDisplay:10.37,2013-08-04 08:39:00,
2013-08-04 01:44:00,48.0,48.0,29.85,WNW,292,0.0,0.0,100,0.00,CLR,,0.00,WeatherDisplay:10.37,2013-08-04 08:44:00,
2013-08-04 01:49:00,48.0,48.0,29.85,WNW,292,0.0,0.0,100,0.00,CLR,,0.00,WeatherDisplay:10.37,2013-08-04 08:49:00,
2013-08-04 01:54:00,48.0,48.0,29.86,WNW,292,0.0,0.0,100,0.00,CLR,,0.00,WeatherDisplay:10.37,2013-08-04 08:54:00,
2013-08-04 01:59:00,48.0,48.0,29.85,WNW,292,2.0,2.0,100,0.00,CLR,,0.00,WeatherDisplay:10.37,2013-08-04 08:59:00,
2013-08-04 02:04:00,48.0,48.0,29.86,WNW,292,2.3,2.3,100,0.00,CLR,,0.00,WeatherDisplay:10.37,2013-08-04 09:04:00,
2013-08-04 02:09:00,48.0,48.0,29.86,WNW,292,1.1,0.0,100,0.00,CLR,,0.00,WeatherDisplay:10.37,2013-08-04 09:09:00,
2013-08-04 02:14:00,48.0,48.0,29.86,WNW,292,0.0,0.0,100,0.00,CLR,,0.00,WeatherDisplay:10.37,2013-08-04 09:14:00,
2013-08-04 02:19:00,47.0,47.0,29.86,WNW,292,0.0,0.0,100,0.00,CLR,,0.00,WeatherDisplay:10.37,2013-08-04 09:19:00,
2013-08-04 02:24:00,47.0,47.0,29.86,WNW,292,0.0,0.0,100,0.00,CLR,,0.00,WeatherDisplay:10.37,2013-08-04 09:24:00,
2013-08-04 02:29:00,48.0,48.0,29.86,WNW,292,0.0,0.0,100,0.00,CLR,,0.00,WeatherDisplay:10.37,2013-08-04 09:29:00,
2013-08-04 02:34:00,48.0,48.0,29.86,WNW,292,0.0,0.0,100,0.00,CLR,,0.00,WeatherDisplay:10.37,2013-08-04 09:34:00,
2013-08-04 02:39:00,48.0,48.0,29.86,WNW,292,0.0,0.0,100,0.00,CLR,,0.00,WeatherDisplay:10.37,2013-08-04 09:39:00,
2013-08-04 02:44:00,48.0,48.0,29.86,WNW,292,0.0,0.0,100,0.00,CLR,,0.00,WeatherDisplay:10.37,2013-08-04 09:44:00,
2013-08-04 02:49:00,49.0,49.0,29.87,WNW,292,0.0,0.0,100,0.00,CLR,,0.00,WeatherDisplay:10.37,2013-08-04 09:49:00,
2013-08-04 02:54:00,49.0,49.0,29.86,WNW,292,0.0,0.0,100,0.00,CLR,,0.00,WeatherDisplay:10.37,2013-08-04 09:54:00,
2013-08-04 02:59:00,50.0,50.0,29.87,NW,315,3.0,3.0,100,0.00,CLR,,0.00,WeatherDisplay:10.37,2013-08-04 09:59:00,
2013-08-04 03:04:00,50.0,50.0,29.87,NW,315,3.5,3.5,100,0.00,CLR,,0.00,WeatherDisplay:10.37,2013-08-04 10:04:00,
2013-08-04 03:10:00,50.0,50.0,29.87,NW,315,0.0,0.0,100,0.00,CLR,,0.00,WeatherDisplay:10.37,2013-08-04 10:10:00,
2013-08-04 03:15:00,50.0,50.0,29.87,West,270,0.0,0.0,100,0.00,CLR,,0.00,WeatherDisplay:10.37,2013-08-04 10:15:00,
2013-08-04 03:20:00,51.0,51.0,29.87,West,270,0.0,0.0,100,0.00,CLR,,0.00,WeatherDisplay:10.37,2013-08-04 10:20:00,
2013-08-04 03:25:00,51.0,51.0,29.87,West,270,0.0,0.0,100,0.00,CLR,,0.00,WeatherDisplay:10.37,2013-08-04 10:25:00,
2013-08-04 03:30:00,51.0,51.0,29.87,West,270,0.0,0.0,100,0.00,CLR,,0.00,WeatherDisplay:10.37,2013-08-04 10:30:00,
2013-08-04 03:35:00,51.0,51.0,29.87,WNW,292,3.5,3.5,100,0.00,CLR,,0.00,WeatherDisplay:10.37,2013-08-04 10:35:00,
2013-08-04 03:40:00,51.0,51.0,29.87,WNW,292,0.0,0.0,100,0.00,CLR,,0.00,WeatherDisplay:10.37,2013-08-04 10:40:00,
2013-08-04 03:45:00,51.0,51.0,29.87,WNW,292,0.0,0.0,100,0.00,CLR,,0.00,WeatherDisplay:10.37,2013-08-04 10:45:00,
2013-08-04 03:50:00,51.0,51.0,29.87,WNW,292,0.0,0.0,100,0.00,CLR,,0.00,WeatherDisplay:10.37,2013-08-04 10:50:00,
2013-08-04 03:55:00,51.0,51.0,29.87,WNW,292,0.0,0.0,100,0.00,CLR,,0.00,WeatherDisplay:10.37,2013-08-04 10:55:00,
2013-08-04 04:00:00,51.0,51.0,29.87,SE,135,3.0,3.0,100,0.00,CLR,,0.00,WeatherDisplay:10.37,2013-08-04 11:00:00,
2013-08-04 04:04:00,51.0,51.0,29.87,ESE,112,3.5,3.5,100,0.00,CLR,,0.00,WeatherDisplay:10.37,2013-08-04 11:04:00,
2013-08-04 04:10:00,51.0,51.0,29.87,ESE,112,4.0,4.0,100,0.00,CLR,,0.00,WeatherDisplay:10.37,2013-08-04 11:10:00,
2013-08-04 04:15:00,51.0,51.0,29.87,SE,135,3.5,3.5,100,0.00,CLR,,0.00,WeatherDisplay:10.37,2013-08-04 11:15:00,
2013-08-04 04:20:00,51.0,51.0,29.87,SE,135,3.5,3.5,100,0.00,CLR,,0.00,WeatherDisplay:10.37,2013-08-04 11:20:00,
2013-08-04 04:25:00,51.0,51.0,29.87,SE,135,2.3,2.3,100,0.00,CLR,,0.00,WeatherDisplay:10.37,2013-08-04 11:25:00,
2013-08-04 04:30:00,51.0,51.0,29.87,SE,135,2.3,2.3,100,0.00,CLR,,0.00,WeatherDisplay:10.37,2013-08-04 11:30:00,
2013-08-04 04:35:00,51.0,51.0,29.87,SE,135,2.3,2.3,100,0.00,CLR,,0.00,WeatherDisplay:10.37,2013-08-04 11:35:00,
2013-08-04 04:39:00,51.0,51.0,29.87,SE,135,3.5,3.5,100,0.00,CLR,,0.00,WeatherDisplay:10.37,2013-08-04 11:39:00,
2013-08-04 04:45:00,51.0,51.0,29.87,SE,135,2.3,2.3,100,0.00,CLR,,0.00,WeatherDisplay:10.37,2013-08-04 11:45:00,
2013-08-04 04:50:00,51.0,51.0,29.88,East,90,3.5,3.5,100,0.00,CLR,,0.00,WeatherDisplay:10.37,2013-08-04 11:50:00,
2013-08-04 04:55:00,51.0,51.0,29.88,East,90,0.0,0.0,100,0.00,CLR,,0.00,WeatherDisplay:10.37,2013-08-04 11:55:00,
2013-08-04 04:59:00,51.0,51.0,29.88,East,90,1.1,1.1,100,0.00,CLR,,0.00,WeatherDisplay:10.37,2013-08-04 11:59:00,
2013-08-04 05:05:00,51.0,51.0,29.88,East,90,0.0,0.0,100,0.00,CLR,,0.00,WeatherDisplay:10.37,2013-08-04 12:05:00,
2013-08-04 05:10:00,51.0,51.0,29.88,East,90,0.0,0.0,100,0.00,CLR,,0.00,WeatherDisplay:10.37,2013-08-04 12:10:00,
2013-08-04 05:15:00,51.0,51.0,29.88,East,90,2.3,2.3,100,0.00,CLR,,0.00,WeatherDisplay:10.37,2013-08-04 12:15:00,
2013-08-04 05:20:00,51.0,51.0,29.88,East,90,0.0,0.0,100,0.00,CLR,,0.00,WeatherDisplay:10.37,2013-08-04 12:20:00,
2013-08-04 05:25:00,51.0,51.0,29.88,ESE,112,2.3,2.3,100,0.00,CLR,,0.00,WeatherDisplay:10.37,2013-08-04 12:25:00,
2013-08-04 05:30:00,51.0,51.0,29.88,ESE,112,2.3,2.3,100,0.00,CLR,,0.00,WeatherDisplay:10.37,2013-08-04 12:30:00,
2013-08-04 05:35:00,51.0,51.0,29.88,SE,135,3.5,3.5,100,0.00,CLR,,0.00,WeatherDisplay:10.37,2013-08-04 12:35:00,
2013-08-04 05:40:00,51.0,51.0,29.88,SE,135,0.0,0.0,100,0.00,CLR,,0.00,WeatherDisplay:10.37,2013-08-04 12:40:00,
2013-08-04 05:45:00,51.0,51.0,29.88,SE,135,0.0,0.0,100,0.00,CLR,,0.00,WeatherDisplay:10.37,2013-08-04 12:45:00,
2013-08-04 05:50:00,51.0,51.0,29.88,ENE,67,2.3,2.3,100,0.00,CLR,,0.00,WeatherDisplay:10.37,2013-08-04 12:50:00,
2013-08-04 05:55:00,51.0,51.0,29.89,ENE,67,2.3,2.3,100,0.00,CLR,,0.00,WeatherDisplay:10.37,2013-08-04 12:55:00,
2013-08-04 06:00:00,52.0,52.0,29.89,West,270,1.1,1.1,100,0.00,CLR,,0.00,WeatherDisplay:10.37,2013-08-04 13:00:00,
2013-08-04 06:05:00,52.0,52.0,29.89,WSW,247,3.5,3.5,100,0.00,CLR,,0.00,WeatherDisplay:10.37,2013-08-04 13:05:00,
2013-08-04 06:10:00,52.0,52.0,29.89,SE,135,4.0,4.0,100,0.00,CLR,,0.00,WeatherDisplay:10.37,2013-08-04 13:10:00,
2013-08-04 06:15:00,52.0,52.0,29.89,SE,135,1.1,1.1,100,0.00,CLR,,0.00,WeatherDisplay:10.37,2013-08-04 13:15:00,
2013-08-04 06:20:00,52.0,52.0,29.89,SE,135,0.0,0.0,100,0.00,CLR,,0.00,WeatherDisplay:10.37,2013-08-04 13:20:00,
2013-08-04 06:25:00,52.0,52.0,29.89,SE,135,4.6,4.6,100,0.00,CLR,,0.00,WeatherDisplay:10.37,2013-08-04 13:25:00,
2013-08-04 06:30:00,51.0,51.0,29.89,SE,135,4.6,4.6,100,0.00,CLR,,0.00,WeatherDisplay:10.37,2013-08-04 13:30:00,
2013-08-04 06:35:00,52.0,52.0,29.89,SW,225,3.5,3.5,100,0.00,CLR,,0.00,WeatherDisplay:10.37,2013-08-04 13:35:00,
2013-08-04 06:40:00,52.0,52.0,29.89,SE,135,4.6,4.6,100,0.00,CLR,,0.00,WeatherDisplay:10.37,2013-08-04 13:40:00,
2013-08-04 06:45:00,52.0,52.0,29.89,SE,135,4.6,4.6,100,0.00,CLR,,0.00,WeatherDisplay:10.37,2013-08-04 13:45:00,
2013-08-04 06:50:00,52.0,52.0,29.89,SE,135,4.0,4.0,100,0.00,CLR,,0.00,WeatherDisplay:10.37,2013-08-04 13:50:00,
2013-08-04 06:55:00,52.0,52.0,29.89,NW,315,1.1,0.0,100,0.00,CLR,,0.00,WeatherDisplay:10.37,2013-08-04 13:55:00,
2013-08-04 07:00:00,52.0,52.0,29.89,North,360,3.5,3.5,100,0.00,CLR,,0.00,WeatherDisplay:10.37,2013-08-04 14:00:00,
2013-08-04 07:05:00,52.0,52.0,29.89,SW,225,0.0,0.0,100,0.00,CLR,,0.00,WeatherDisplay:10.37,2013-08-04 14:05:00,
2013-08-04 07:10:00,52.0,52.0,29.89,WNW,292,5.8,5.8,100,0.00,CLR,,0.00,WeatherDisplay:10.37,2013-08-04 14:10:00,
2013-08-04 07:15:00,52.0,52.0,29.89,WNW,292,4.6,4.6,100,0.00,CLR,,0.00,WeatherDisplay:10.37,2013-08-04 14:15:00,
2013-08-04 07:20:00,52.0,52.0,29.90,WNW,292,6.0,6.0,100,0.00,CLR,,0.00,WeatherDisplay:10.37,2013-08-04 14:20:00,
2013-08-04 07:25:00,52.0,52.0,29.90,West,270,3.5,3.5,100,0.00,CLR,,0.00,WeatherDisplay:10.37,2013-08-04 14:25:00,
2013-08-04 07:30:00,52.0,52.0,29.90,NNW,337,6.0,6.0,100,0.00,CLR,,0.00,WeatherDisplay:10.37,2013-08-04 14:30:00,
2013-08-04 07:35:00,52.0,52.0,29.90,NW,315,5.0,5.0,100,0.00,CLR,,0.00,WeatherDisplay:10.37,2013-08-04 14:35:00,
2013-08-04 07:40:00,52.0,52.0,29.90,NW,315,3.5,3.5,100,0.00,CLR,,0.00,WeatherDisplay:10.37,2013-08-04 14:40:00,
2013-08-04 07:45:00,52.0,52.0,29.90,NNW,337,4.6,4.6,100,0.00,CLR,,0.00,WeatherDisplay:10.37,2013-08-04 14:45:00,
2013-08-04 07:50:00,52.0,51.7,29.90,WNW,292,5.8,5.8,99,0.00,CLR,,0.00,WeatherDisplay:10.37,2013-08-04 14:50:00,
2013-08-04 07:55:00,53.0,52.7,29.90,NNW,337,1.1,0.0,99,0.00,CLR,,0.00,WeatherDisplay:10.37,2013-08-04 14:55:00,
2013-08-04 08:00:00,53.0,52.7,29.91,WNW,292,4.6,4.6,99,0.00,CLR,,0.00,WeatherDisplay:10.37,2013-08-04 15:00:00,
2013-08-04 08:05:00,53.0,52.5,29.91,West,270,3.5,3.5,98,0.00,CLR,,0.00,WeatherDisplay:10.37,2013-08-04 15:05:00,
2013-08-04 08:10:00,53.0,52.5,29.91,West,270,4.0,4.0,98,0.00,CLR,,0.00,WeatherDisplay:10.37,2013-08-04 15:10:00,
2013-08-04 08:15:00,53.0,52.7,29.91,WNW,292,3.5,3.5,99,0.00,CLR,,0.00,WeatherDisplay:10.37,2013-08-04 15:15:00,
2013-08-04 08:20:00,53.0,52.7,29.91,NNW,337,6.9,6.9,99,0.00,CLR,,0.00,WeatherDisplay:10.37,2013-08-04 15:20:00,
2013-08-04 08:25:00,53.0,52.5,29.91,North,360,3.5,3.5,98,0.00,CLR,,0.00,WeatherDisplay:10.37,2013-08-04 15:25:00,
2013-08-04 08:30:00,53.0,52.5,29.91,NNE,22,4.6,4.6,98,0.00,CLR,,0.00,WeatherDisplay:10.37,2013-08-04 15:30:00,
2013-08-04 08:35:00,54.0,53.4,29.91,NNW,337,2.3,2.3,98,0.00,CLR,,0.00,WeatherDisplay:10.37,2013-08-04 15:35:00,
2013-08-04 08:40:00,54.0,53.2,29.91,NNW,337,4.6,4.6,97,0.00,CLR,,0.00,WeatherDisplay:10.37,2013-08-04 15:40:00,
2013-08-04 08:45:00,54.0,52.9,29.91,West,270,3.5,3.5,96,0.00,CLR,,0.00,WeatherDisplay:10.37,2013-08-04 15:45:00,
2013-08-04 08:50:00,54.0,52.9,29.91,West,270,3.5,3.5,96,0.00,CLR,,0.00,WeatherDisplay:10.37,2013-08-04 15:50:00,
2013-08-04 08:55:00,54.0,52.9,29.91,WNW,292,4.6,4.6,96,0.00,CLR,,0.00,WeatherDisplay:10.37,2013-08-04 15:55:00,
2013-08-04 09:00:00,54.0,52.9,29.91,NW,315,3.5,3.5,96,0.00,CLR,,0.00,WeatherDisplay:10.37,2013-08-04 16:00:00,
2013-08-04 09:05:00,54.0,52.9,29.91,NW,315,0.0,0.2,96,0.00,CLR,,0.00,WeatherDisplay:10.37,2013-08-04 16:05:00,
2013-08-04 09:10:00,55.0,53.6,29.91,NNE,22,2.0,2.0,95,0.00,CLR,,0.00,WeatherDisplay:10.37,2013-08-04 16:10:00,
2013-08-04 09:15:00,55.0,53.0,29.91,ESE,112,3.5,3.5,93,0.00,CLR,,0.00,WeatherDisplay:10.37,2013-08-04 16:15:00,
2013-08-04 09:20:00,55.0,53.0,29.91,North,360,4.6,4.6,93,0.00,CLR,,0.00,WeatherDisplay:10.37,2013-08-04 16:20:00,
2013-08-04 09:25:00,55.0,53.0,29.92,ENE,67,3.5,3.5,93,0.00,CLR,,0.00,WeatherDisplay:10.37,2013-08-04 16:25:00,
2013-08-04 09:30:00,55.0,52.7,29.91,East,90,3.5,3.5,92,0.00,CLR,,0.00,WeatherDisplay:10.37,2013-08-04 16:30:00,
2013-08-04 09:35:00,55.0,52.7,29.91,East,90,4.6,4.6,92,0.00,CLR,,0.00,WeatherDisplay:10.37,2013-08-04 16:35:00,
2013-08-04 09:40:00,55.0,52.4,29.91,NE,45,5.8,5.8,91,0.00,CLR,,0.00,WeatherDisplay:10.37,2013-08-04 16:40:00,
2013-08-04 09:45:00,56.0,53.7,29.91,North,360,0.0,0.0,92,0.00,CLR,,0.00,WeatherDisplay:10.37,2013-08-04 16:45:00,
2013-08-04 09:50:00,56.0,53.4,29.92,East,90,4.6,4.6,91,0.00,CLR,,0.00,WeatherDisplay:10.37,2013-08-04 16:50:00,
2013-08-04 09:55:00,56.0,52.8,29.92,ENE,67,6.0,6.0,89,0.00,CLR,,0.00,WeatherDisplay:10.37,2013-08-04 16:55:00,
2013-08-04 10:00:00,56.0,52.5,29.92,East,90,5.8,5.8,88,0.00,CLR,,0.00,WeatherDisplay:10.37,2013-08-04 17:00:00,
2013-08-04 10:05:00,56.0,52.8,29.92,SE,135,5.8,5.8,89,0.00,CLR,,0.00,WeatherDisplay:10.37,2013-08-04 17:05:00,
2013-08-04 10:10:00,57.0,53.5,29.92,SE,135,5.8,5.8,88,0.00,CLR,,0.00,WeatherDisplay:10.37,2013-08-04 17:10:00,
2013-08-04 10:15:00,57.0,53.5,29.92,ENE,67,4.6,4.6,88,0.00,CLR,,0.00,WeatherDisplay:10.37,2013-08-04 17:15:00,
2013-08-04 10:20:00,57.0,52.9,29.92,NNE,22,6.9,6.9,86,0.00,CLR,,0.00,WeatherDisplay:10.37,2013-08-04 17:20:00,
2013-08-04 10:25:00,58.0,54.2,29.92,ENE,67,6.0,6.0,87,0.00,CLR,,0.00,WeatherDisplay:10.37,2013-08-04 17:25:00,
2013-08-04 10:30:00,58.0,53.5,29.92,East,90,5.8,5.8,85,0.00,CLR,,0.00,WeatherDisplay:10.37,2013-08-04 17:30:00,
2013-08-04 10:35:00,59.0,54.2,29.92,SE,135,3.5,3.5,84,0.00,CLR,,0.00,WeatherDisplay:10.37,2013-08-04 17:35:00,
2013-08-04 10:40:00,59.0,53.8,29.92,ESE,112,5.8,5.8,83,0.00,CLR,,0.00,WeatherDisplay:10.37,2013-08-04 17:40:00,
2013-08-04 10:45:00,60.0,54.8,29.93,NE,45,5.8,5.8,83,0.00,CLR,,0.00,WeatherDisplay:10.37,2013-08-04 17:45:00,
2013-08-04 10:50:00,60.0,53.8,29.93,NE,45,6.9,6.9,80,0.00,CLR,,0.00,WeatherDisplay:10.37,2013-08-04 17:50:00,
2013-08-04 10:55:00,60.0,53.8,29.93,ESE,112,6.9,6.9,80,0.00,CLR,,0.00,WeatherDisplay:10.37,2013-08-04 17:55:00,
2013-08-04 11:00:00,61.0,54.1,29.93,SE,135,5.8,5.8,78,0.00,CLR,,0.00,WeatherDisplay:10.37,2013-08-04 18:00:00,
2013-08-04 11:05:00,62.0,54.7,29.93,ESE,112,4.6,4.6,77,0.00,CLR,,0.00,WeatherDisplay:10.37,2013-08-04 18:05:00,
2013-08-04 11:10:00,62.0,54.0,29.93,East,90,6.9,6.9,75,0.00,CLR,,0.00,WeatherDisplay:10.37,2013-08-04 18:10:00,
2013-08-04 11:15:00,62.0,54.0,29.93,NE,45,10.4,10.4,75,0.00,CLR,,0.00,WeatherDisplay:10.37,2013-08-04 18:15:00,
2013-08-04 11:20:00,61.0,53.7,29.93,SE,135,9.2,9.2,77,0.00,CLR,,0.00,WeatherDisplay:10.37,2013-08-04 18:20:00,
2013-08-04 11:25:00,62.0,54.3,29.93,ESE,112,7.0,7.0,76,0.00,CLR,,0.00,WeatherDisplay:10.37,2013-08-04 18:25:00,
2013-08-04 11:30:00,63.0,54.9,29.93,East,90,4.6,4.6,75,0.00,CLR,,0.00,WeatherDisplay:10.37,2013-08-04 18:30:00,
2013-08-04 11:36:00,63.0,54.2,29.93,ESE,112,6.9,6.9,73,0.00,CLR,,0.00,WeatherDisplay:10.37,2013-08-04 18:36:00,
2013-08-04 11:41:00,64.0,55.2,29.93,ESE,112,6.9,6.9,73,0.00,CLR,,0.00,WeatherDisplay:10.37,2013-08-04 18:41:00,
2013-08-04 11:46:00,64.0,54.0,29.93,East,90,6.9,6.9,70,0.00,CLR,,0.00,WeatherDisplay:10.37,2013-08-04 18:46:00,
2013-08-04 11:50:00,64.0,54.0,29.92,SE,135,8.1,8.1,70,0.00,CLR,,0.00,WeatherDisplay:10.37,2013-08-04 18:50:00,
2013-08-04 11:56:00,65.0,54.6,29.92,SE,135,9.2,9.2,69,0.00,CLR,,0.00,WeatherDisplay:10.37,2013-08-04 18:56:00,
2013-08-04 12:01:00,65.0,54.6,29.92,East,90,13.0,13.0,69,0.00,CLR,,0.00,WeatherDisplay:10.37,2013-08-04 19:01:00,
2013-08-04 12:06:00,66.0,55.1,29.92,ESE,112,9.2,9.2,68,0.00,CLR,,0.00,WeatherDisplay:10.37,2013-08-04 19:06:00,
2013-08-04 12:11:00,66.0,54.7,29.92,SE,135,9.2,9.2,67,0.00,CLR,,0.00,WeatherDisplay:10.37,2013-08-04 19:11:00,
2013-08-04 12:16:00,67.0,54.8,29.92,SE,135,9.2,9.2,65,0.00,CLR,,0.00,WeatherDisplay:10.37,2013-08-04 19:16:00,
2013-08-04 12:20:00,67.0,54.4,29.92,SE,135,11.5,11.5,64,0.00,CLR,,0.00,WeatherDisplay:10.37,2013-08-04 19:20:00,
2013-08-04 12:26:00,67.0,54.4,29.92,East,90,6.9,6.9,64,0.00,CLR,,0.00,WeatherDisplay:10.37,2013-08-04 19:26:00,
2013-08-04 12:30:00,68.0,55.8,29.92,SE,135,10.4,10.4,65,0.00,CLR,,0.00,WeatherDisplay:10.37,2013-08-04 19:30:00,
2013-08-04 12:35:00,68.0,54.9,29.91,East,90,9.2,9.2,63,0.00,CLR,,0.00,WeatherDisplay:10.37,2013-08-04 19:35:00,
2013-08-04 12:41:00,69.0,55.4,29.91,SE,135,10.4,10.4,62,0.00,CLR,,0.00,WeatherDisplay:10.37,2013-08-04 19:41:00,
2013-08-04 12:46:00,69.0,55.0,29.91,East,90,11.5,11.5,61,0.00,CLR,,0.00,WeatherDisplay:10.37,2013-08-04 19:46:00,
2013-08-04 12:50:00,70.0,55.9,29.91,East,90,11.5,11.5,61,0.00,CLR,,0.00,WeatherDisplay:10.37,2013-08-04 19:50:00,
2013-08-04 12:56:00,70.0,55.9,29.91,SE,135,11.5,11.5,61,0.00,CLR,,0.00,WeatherDisplay:10.37,2013-08-04 19:56:00,
2013-08-04 13:00:00,70.0,55.9,29.91,SE,135,14.0,14.0,61,0.00,CLR,,0.00,WeatherDisplay:10.37,2013-08-04 20:00:00,
2013-08-04 13:06:00,70.0,55.9,29.91,SE,135,11.5,11.5,61,0.00,CLR,,0.00,WeatherDisplay:10.37,2013-08-04 20:06:00,
2013-08-04 13:11:00,70.0,55.9,29.91,East,90,12.7,12.7,61,0.00,CLR,,0.00,WeatherDisplay:10.37,2013-08-04 20:11:00,
2013-08-04 13:16:00,70.0,56.4,29.91,SE,135,14.0,14.0,62,0.00,CLR,,0.00,WeatherDisplay:10.37,2013-08-04 20:16:00,
2013-08-04 13:21:00,70.0,56.8,29.91,SE,135,16.1,16.1,63,0.00,CLR,,0.00,WeatherDisplay:10.37,2013-08-04 20:21:00,
2013-08-04 13:26:00,70.0,56.4,29.91,SE,135,15.0,15.0,62,0.00,CLR,,0.00,WeatherDisplay:10.37,2013-08-04 20:26:00,
2013-08-04 13:30:00,69.0,55.4,29.91,ESE,112,13.8,13.8,62,0.00,CLR,,0.00,WeatherDisplay:10.37,2013-08-04 20:30:00,
2013-08-04 13:36:00,70.0,56.4,29.90,SE,135,15.0,15.0,62,0.00,CLR,,0.00,WeatherDisplay:10.37,2013-08-04 20:36:00,
2013-08-04 13:41:00,70.0,55.9,29.90,SE,135,12.0,12.0,61,0.00,CLR,,0.00,WeatherDisplay:10.37,2013-08-04 20:41:00,
2013-08-04 13:46:00,70.0,56.8,29.90,SE,135,16.1,16.1,63,0.00,CLR,,0.00,WeatherDisplay:10.37,2013-08-04 20:46:00,
2013-08-04 13:51:00,70.0,56.8,29.90,SE,135,16.1,16.1,63,0.00,CLR,,0.00,WeatherDisplay:10.37,2013-08-04 20:51:00,
2013-08-04 13:56:00,70.0,55.9,29.90,SE,135,12.7,12.7,61,0.00,CLR,,0.00,WeatherDisplay:10.37,2013-08-04 20:56:00,
2013-08-04 14:01:00,71.0,56.9,29.90,SE,135,15.0,15.0,61,0.00,CLR,,0.00,WeatherDisplay:10.37,2013-08-04 21:01:00,
2013-08-04 14:06:00,71.0,56.9,29.90,SE,135,14.0,14.0,61,0.00,CLR,,0.00,WeatherDisplay:10.37,2013-08-04 21:06:00,
2013-08-04 14:11:00,71.0,56.9,29.89,SE,135,16.1,16.1,61,0.00,CLR,,0.00,WeatherDisplay:10.37,2013-08-04 21:11:00,
2013-08-04 14:16:00,70.0,56.4,29.89,ESE,112,13.8,13.8,62,0.00,CLR,,0.00,WeatherDisplay:10.37,2013-08-04 21:16:00,
2013-08-04 14:21:00,71.0,56.9,29.90,SE,135,15.0,15.0,61,0.00,CLR,,0.00,WeatherDisplay:10.37,2013-08-04 21:21:00,
2013-08-04 14:26:00,71.0,56.9,29.89,ESE,112,15.0,15.0,61,0.00,CLR,,0.00,WeatherDisplay:10.37,2013-08-04 21:26:00,
2013-08-04 14:31:00,71.0,57.3,29.89,SE,135,12.7,12.7,62,0.00,CLR,,0.00,WeatherDisplay:10.37,2013-08-04 21:31:00,
2013-08-04 14:36:00,71.0,56.9,29.89,SE,135,13.8,13.8,61,0.00,CLR,,0.00,WeatherDisplay:10.37,2013-08-04 21:36:00,
2013-08-04 14:41:00,72.0,57.4,29.89,SE,135,15.0,15.0,60,0.00,CLR,,0.00,WeatherDisplay:10.37,2013-08-04 21:41:00,
2013-08-04 14:46:00,71.0,56.9,29.89,SE,135,17.3,17.3,61,0.00,CLR,,0.00,WeatherDisplay:10.37,2013-08-04 21:46:00,
2013-08-04 14:49:00,71.0,56.4,29.89,SE,135,13.8,13.8,60,0.00,CLR,,0.00,WeatherDisplay:10.37,2013-08-04 21:49:00,
2013-08-04 14:54:00,72.0,57.4,29.88,SE,135,14.0,14.0,60,0.00,CLR,,0.00,WeatherDisplay:10.37,2013-08-04 21:54:00,
2013-08-04 14:59:00,72.0,57.4,29.89,ESE,112,15.0,15.0,60,0.00,CLR,,0.00,WeatherDisplay:10.37,2013-08-04 21:59:00,
2013-08-04 15:04:00,73.0,57.8,29.88,SE,135,15.0,15.0,59,0.00,CLR,,0.00,WeatherDisplay:10.37,2013-08-04 22:04:00,
2013-08-04 15:09:00,73.0,57.3,29.88,East,90,13.8,13.8,58,0.00,CLR,,0.00,WeatherDisplay:10.37,2013-08-04 22:09:00,
2013-08-04 15:14:00,73.0,57.3,29.88,SE,135,16.1,16.1,58,0.00,CLR,,0.00,WeatherDisplay:10.37,2013-08-04 22:14:00,
2013-08-04 15:19:00,73.0,57.3,29.87,SE,135,15.0,15.0,58,0.00,CLR,,0.00,WeatherDisplay:10.37,2013-08-04 22:19:00,
2013-08-04 15:24:00,73.0,57.3,29.87,SE,135,15.0,15.0,58,0.00,CLR,,0.00,WeatherDisplay:10.37,2013-08-04 22:24:00,
2013-08-04 15:29:00,73.0,56.4,29.87,ESE,112,16.1,16.1,56,0.00,CLR,,0.00,WeatherDisplay:10.37,2013-08-04 22:29:00,
2013-08-04 15:34:00,74.0,57.8,29.87,SE,135,15.0,15.0,57,0.00,CLR,,0.00,WeatherDisplay:10.37,2013-08-04 22:34:00,
2013-08-04 15:39:00,74.0,56.8,29.87,SE,135,13.8,13.8,55,0.00,CLR,,0.00,WeatherDisplay:10.37,2013-08-04 22:39:00,
2013-08-04 15:44:00,74.0,56.3,29.87,East,90,15.0,15.0,54,0.00,CLR,,0.00,WeatherDisplay:10.37,2013-08-04 22:44:00,
2013-08-04 15:49:00,75.0,56.7,29.87,SE,135,16.1,16.1,53,0.00,CLR,,0.00,WeatherDisplay:10.37,2013-08-04 22:49:00,
2013-08-04 15:54:00,74.0,56.3,29.87,SE,135,13.8,13.8,54,0.00,CLR,,0.00,WeatherDisplay:10.37,2013-08-04 22:54:00,
2013-08-04 15:59:00,75.0,57.2,29.87,SE,135,12.7,12.7,54,0.00,CLR,,0.00,WeatherDisplay:10.37,2013-08-04 22:59:00,
2013-08-04 16:05:00,74.0,56.8,29.87,ESE,112,12.7,12.7,55,0.00,CLR,,0.00,WeatherDisplay:10.37,2013-08-04 23:05:00,
2013-08-04 16:10:00,75.0,56.2,29.86,SE,135,15.0,15.0,52,0.00,CLR,,0.00,WeatherDisplay:10.37,2013-08-04 23:10:00,
2013-08-04 16:14:00,75.0,56.2,29.87,SE,135,15.0,15.0,52,0.00,CLR,,0.00,WeatherDisplay:10.37,2013-08-04 23:14:00,
2013-08-04 16:20:00,75.0,57.2,29.86,ESE,112,15.0,15.0,54,0.00,CLR,,0.00,WeatherDisplay:10.37,2013-08-04 23:20:00,
2013-08-04 16:25:00,75.0,57.2,29.87,SE,135,13.8,13.8,54,0.00,CLR,,0.00,WeatherDisplay:10.37,2013-08-04 23:25:00,
2013-08-04 16:30:00,75.0,57.2,29.86,SE,135,15.0,15.0,54,0.00,CLR,,0.00,WeatherDisplay:10.37,2013-08-04 23:30:00,
2013-08-04 16:35:00,75.0,56.7,29.87,SE,135,15.0,15.0,53,0.00,CLR,,0.00,WeatherDisplay:10.37,2013-08-04 23:35:00,
2013-08-04 16:39:00,76.0,56.6,29.86,SE,135,11.5,11.5,51,0.00,CLR,,0.00,WeatherDisplay:10.37,2013-08-04 23:39:00,
2013-08-04 16:45:00,75.0,56.7,29.87,SE,135,16.1,16.1,53,0.00,CLR,,0.00,WeatherDisplay:10.37,2013-08-04 23:45:00,
2013-08-04 16:50:00,75.0,56.7,29.87,SE,135,16.1,16.1,53,0.00,CLR,,0.00,WeatherDisplay:10.37,2013-08-04 23:50:00,
2013-08-04 16:55:00,74.0,56.8,29.86,SE,135,17.3,17.3,55,0.00,CLR,,0.00,WeatherDisplay:10.37,2013-08-04 23:55:00,
2013-08-04 17:00:00,74.0,57.3,29.87,SE,135,15.0,15.0,56,0.00,CLR,,0.00,WeatherDisplay:10.37,2013-08-05 00:00:00,
2013-08-04 17:05:00,74.0,57.3,29.86,SE,135,15.0,15.0,56,0.00,CLR,,0.00,WeatherDisplay:10.37,2013-08-05 00:05:00,
2013-08-04 17:10:00,74.0,56.8,29.86,SE,135,17.3,17.3,55,0.00,CLR,,0.00,WeatherDisplay:10.37,2013-08-05 00:10:00,
2013-08-04 17:15:00,73.0,56.4,29.86,SE,135,16.1,16.1,56,0.00,CLR,,0.00,WeatherDisplay:10.37,2013-08-05 00:15:00,
2013-08-04 17:19:00,73.0,56.4,29.86,SE,135,19.6,19.6,56,0.00,CLR,,0.00,WeatherDisplay:10.37,2013-08-05 00:19:00,
2013-08-04 17:25:00,73.0,56.4,29.86,SE,135,11.5,11.5,56,0.00,CLR,,0.00,WeatherDisplay:10.37,2013-08-05 00:25:00,
2013-08-04 17:30:00,73.0,57.3,29.86,SE,135,15.0,15.0,58,0.00,CLR,,0.00,WeatherDisplay:10.37,2013-08-05 00:30:00,
2013-08-04 17:35:00,73.0,54.9,29.86,SE,135,11.5,11.5,53,0.00,CLR,,0.00,WeatherDisplay:10.37,2013-08-05 00:35:00,
2013-08-04 17:40:00,74.0,54.7,29.86,SE,135,10.4,10.4,51,0.00,CLR,,0.00,WeatherDisplay:10.37,2013-08-05 00:40:00,
2013-08-04 17:44:00,74.0,54.2,29.86,SE,135,16.1,16.1,50,0.00,CLR,,0.00,WeatherDisplay:10.37,2013-08-05 00:44:00,
2013-08-04 17:50:00,74.0,54.7,29.86,SW,225,10.4,10.4,51,0.00,CLR,,0.00,WeatherDisplay:10.37,2013-08-05 00:50:00,
2013-08-04 17:55:00,74.0,54.2,29.87,SE,135,12.7,12.7,50,0.00,CLR,,0.00,WeatherDisplay:10.37,2013-08-05 00:55:00,
2013-08-04 18:00:00,74.0,54.2,29.87,SE,135,12.7,12.7,50,0.00,CLR,,0.00,WeatherDisplay:10.37,2013-08-05 01:00:00,
2013-08-04 18:05:00,74.0,54.2,29.86,SE,135,12.7,12.7,50,0.00,CLR,,0.00,WeatherDisplay:10.37,2013-08-05 01:05:00,
2013-08-04 18:10:00,73.0,53.8,29.86,SE,135,11.5,11.5,51,0.00,CLR,,0.00,WeatherDisplay:10.37,2013-08-05 01:10:00,
2013-08-04 18:15:00,73.0,54.9,29.86,SE,135,10.4,10.4,53,0.00,CLR,,0.00,WeatherDisplay:10.37,2013-08-05 01:15:00,
2013-08-04 18:20:00,72.0,54.4,29.86,SE,135,12.7,12.7,54,0.00,CLR,,0.00,WeatherDisplay:10.37,2013-08-05 01:20:00,
2013-08-04 18:25:00,72.0,54.9,29.86,ESE,112,12.0,12.0,55,0.00,CLR,,0.00,WeatherDisplay:10.37,2013-08-05 01:25:00,
2013-08-04 18:30:00,71.0,54.5,29.86,SE,135,11.5,11.5,56,0.00,CLR,,0.00,WeatherDisplay:10.37,2013-08-05 01:30:00,
2013-08-04 18:35:00,71.0,54.5,29.86,SE,135,11.5,11.5,56,0.00,CLR,,0.00,WeatherDisplay:10.37,2013-08-05 01:35:00,
2013-08-04 18:40:00,71.0,54.5,29.86,SE,135,12.7,12.7,56,0.00,CLR,,0.00,WeatherDisplay:10.37,2013-08-05 01:40:00,
2013-08-04 18:45:00,71.0,55.0,29.86,SE,135,11.5,11.5,57,0.00,CLR,,0.00,WeatherDisplay:10.37,2013-08-05 01:45:00,
2013-08-04 18:50:00,70.0,54.5,29.86,SE,135,11.5,11.5,58,0.00,CLR,,0.00,WeatherDisplay:10.37,2013-08-05 01:50:00,
2013-08-04 18:55:00,70.0,54.5,29.86,ESE,112,9.2,9.2,58,0.00,CLR,,0.00,WeatherDisplay:10.37,2013-08-05 01:55:00,
2013-08-04 19:00:00,70.0,54.1,29.86,SE,135,9.2,9.2,57,0.00,CLR,,0.00,WeatherDisplay:10.37,2013-08-05 02:00:00,
2013-08-04 19:05:00,70.0,54.1,29.86,ESE,112,10.4,10.4,57,0.00,CLR,,0.00,WeatherDisplay:10.37,2013-08-05 02:05:00,
2013-08-04 19:10:00,70.0,54.1,29.86,ESE,112,9.2,9.2,57,0.00,CLR,,0.00,WeatherDisplay:10.37,2013-08-05 02:10:00,
2013-08-04 19:15:00,70.0,54.5,29.86,SE,135,6.9,6.9,58,0.00,CLR,,0.00,WeatherDisplay:10.37,2013-08-05 02:15:00,
2013-08-04 19:20:00,70.0,54.5,29.86,SE,135,6.9,6.9,58,0.00,CLR,,0.00,WeatherDisplay:10.37,2013-08-05 02:20:00,
2013-08-04 19:25:00,70.0,54.5,29.87,East,90,5.8,5.8,58,0.00,CLR,,0.00,WeatherDisplay:10.37,2013-08-05 02:25:00,
2013-08-04 19:30:00,70.0,55.5,29.87,NE,45,4.0,4.0,60,0.00,CLR,,0.00,WeatherDisplay:10.37,2013-08-05 02:30:00,
2013-08-04 19:35:00,70.0,55.5,29.87,North,360,6.0,6.0,60,0.00,CLR,,0.00,WeatherDisplay:10.37,2013-08-05 02:35:00,
2013-08-04 19:40:00,70.0,55.5,29.87,North,360,6.9,6.9,60,0.00,CLR,,0.00,WeatherDisplay:10.37,2013-08-05 02:40:00,
2013-08-04 19:45:00,68.0,54.0,29.87,ENE,67,5.8,5.8,61,0.00,CLR,,0.00,WeatherDisplay:10.37,2013-08-05 02:45:00,
2013-08-04 19:50:00,67.0,54.0,29.87,NE,45,3.5,3.5,63,0.00,CLR,,0.00,WeatherDisplay:10.37,2013-08-05 02:50:00,
2013-08-04 19:55:00,66.0,53.5,29.87,North,360,4.6,4.6,64,0.00,CLR,,0.00,WeatherDisplay:10.37,2013-08-05 02:55:00,
2013-08-04 20:00:00,65.0,53.8,29.87,North,360,5.8,5.8,67,0.00,CLR,,0.00,WeatherDisplay:10.37,2013-08-05 03:00:00,
2013-08-04 20:05:00,64.0,52.8,29.87,NNE,22,3.5,3.5,67,0.00,CLR,,0.00,WeatherDisplay:10.37,2013-08-05 03:05:00,
2013-08-04 20:10:00,63.0,53.1,29.87,East,90,5.8,5.8,70,0.00,CLR,,0.00,WeatherDisplay:10.37,2013-08-05 03:10:00,
2013-08-04 20:15:00,63.0,53.1,29.87,NE,45,3.5,3.5,70,0.00,CLR,,0.00,WeatherDisplay:10.37,2013-08-05 03:15:00,
2013-08-04 20:20:00,62.0,52.9,29.87,NNW,337,6.0,6.0,72,0.00,CLR,,0.00,WeatherDisplay:10.37,2013-08-05 03:20:00,
2013-08-04 20:25:00,62.0,53.6,29.87,North,360,5.8,5.8,74,0.00,CLR,,0.00,WeatherDisplay:10.37,2013-08-05 03:25:00,
2013-08-04 20:30:00,61.0,53.0,29.87,NNW,337,4.6,4.6,75,0.00,CLR,,0.00,WeatherDisplay:10.37,2013-08-05 03:30:00,
2013-08-04 20:35:00,60.0,52.4,29.87,NE,45,5.8,5.8,76,0.00,CLR,,0.00,WeatherDisplay:10.37,2013-08-05 03:35:00,
2013-08-04 20:40:00,60.0,52.8,29.87,ENE,67,5.8,5.8,77,0.00,CLR,,0.00,WeatherDisplay:10.37,2013-08-05 03:40:00,
2013-08-04 20:45:00,60.0,53.1,29.88,NE,45,5.8,5.8,78,0.00,CLR,,0.00,WeatherDisplay:10.37,2013-08-05 03:45:00,
2013-08-04 20:50:00,59.0,52.5,29.88,NE,45,4.6,4.6,79,0.00,CLR,,0.00,WeatherDisplay:10.37,2013-08-05 03:50:00,
2013-08-04 20:55:00,59.0,52.8,29.88,NNW,337,3.5,3.5,80,0.00,CLR,,0.00,WeatherDisplay:10.37,2013-08-05 03:55:00,
2013-08-04 21:00:00,58.0,51.9,29.88,North,360,3.5,3.5,80,0.00,CLR,,0.00,WeatherDisplay:10.37,2013-08-05 04:00:00,
2013-08-04 21:01:00,58.0,51.9,29.88,North,360,3.5,3.5,80,0.00,CLR,,0.00,WeatherDisplay:10.37,2013-08-05 04:01:00,
2013-08-04 21:02:00,58.0,51.9,29.88,North,360,3.5,3.5,80,0.00,CLR,,0.00,WeatherDisplay:10.37,2013-08-05 04:02:00,
2013-08-04 21:03:00,58.0,51.9,29.88,North,360,3.5,3.5,80,0.00,CLR,,0.00,WeatherDisplay:10.37,2013-08-05 04:03:00,
2013-08-04 21:09:00,58.0,52.5,29.88,North,360,5.8,5.8,82,0.00,CLR,,0.00,WeatherDisplay:10.37,2013-08-05 04:09:00,
2013-08-04 21:13:00,57.0,52.2,29.88,NE,45,3.5,3.5,84,0.00,CLR,,0.00,WeatherDisplay:10.37,2013-08-05 04:13:00,
2013-08-04 21:19:00,57.0,51.9,29.89,North,360,2.3,2.3,83,0.00,CLR,,0.00,WeatherDisplay:10.37,2013-08-05 04:19:00,
2013-08-04 21:24:00,56.0,51.2,29.89,North,360,4.6,4.6,84,0.00,CLR,,0.00,WeatherDisplay:10.37,2013-08-05 04:24:00,
2013-08-04 21:29:00,56.0,51.9,29.89,NNW,337,3.5,3.5,86,0.00,CLR,,0.00,WeatherDisplay:10.37,2013-08-05 04:29:00,
2013-08-04 21:34:00,56.0,52.2,29.89,NNW,337,1.1,1.1,87,0.00,CLR,,0.00,WeatherDisplay:10.37,2013-08-05 04:34:00,
2013-08-04 21:39:00,55.0,51.2,29.89,NNW,337,2.3,2.3,87,0.00,CLR,,0.00,WeatherDisplay:10.37,2013-08-05 04:39:00,
2013-08-04 21:44:00,55.0,51.5,29.89,NNW,337,0.0,0.0,88,0.00,CLR,,0.00,WeatherDisplay:10.37,2013-08-05 04:44:00,
2013-08-04 21:49:00,55.0,51.5,29.89,NNW,337,2.3,2.3,88,0.00,CLR,,0.00,WeatherDisplay:10.37,2013-08-05 04:49:00,
2013-08-04 21:54:00,54.0,50.8,29.89,NNW,337,0.0,0.0,89,0.00,CLR,,0.00,WeatherDisplay:10.37,2013-08-05 04:54:00,
2013-08-04 21:59:00,54.0,51.1,29.89,NNW,337,2.3,2.3,90,0.00,CLR,,0.00,WeatherDisplay:10.37,2013-08-05 04:59:00,
2013-08-04 22:04:00,54.0,51.1,29.89,NW,315,3.5,3.5,90,0.00,CLR,,0.00,WeatherDisplay:10.37,2013-08-05 05:04:00,
2013-08-04 22:09:00,54.0,51.4,29.89,NW,315,3.5,3.5,91,0.00,CLR,,0.00,WeatherDisplay:10.37,2013-08-05 05:09:00,
2013-08-04 22:14:00,54.0,51.4,29.89,NW,315,3.5,3.5,91,0.00,CLR,,0.00,WeatherDisplay:10.37,2013-08-05 05:14:00,
2013-08-04 22:19:00,54.0,51.7,29.89,WNW,292,4.6,4.6,92,0.00,CLR,,0.00,WeatherDisplay:10.37,2013-08-05 05:19:00,
2013-08-04 22:24:00,54.0,51.7,29.89,WNW,292,4.0,4.0,92,0.00,CLR,,0.00,WeatherDisplay:10.37,2013-08-05 05:24:00,
2013-08-04 22:29:00,54.0,52.0,29.89,WNW,292,3.5,3.5,93,0.00,CLR,,0.00,WeatherDisplay:10.37,2013-08-05 05:29:00,
2013-08-04 22:34:00,53.0,51.0,29.89,WNW,292,3.5,3.5,93,0.00,CLR,,0.00,WeatherDisplay:10.37,2013-08-05 05:34:00,
2013-08-04 22:39:00,53.0,51.0,29.89,WNW,292,3.5,3.5,93,0.00,CLR,,0.00,WeatherDisplay:10.37,2013-08-05 05:39:00,
2013-08-04 22:44:00,53.0,51.3,29.89,WNW,292,3.5,3.5,94,0.00,CLR,,0.00,WeatherDisplay:10.37,2013-08-05 05:44:00,
2013-08-04 22:49:00,53.0,51.0,29.89,WNW,292,3.5,3.5,93,0.00,CLR,,0.00,WeatherDisplay:10.37,2013-08-05 05:49:00,
2013-08-04 22:54:00,53.0,51.0,29.89,WNW,292,3.5,3.5,93,0.00,CLR,,0.00,WeatherDisplay:10.37,2013-08-05 05:54:00,
2013-08-04 22:59:00,53.0,51.3,29.89,WNW,292,5.8,5.8,94,0.00,CLR,,0.00,WeatherDisplay:10.37,2013-08-05 05:59:00,
2013-08-04 23:04:00,53.0,51.6,29.89,WNW,292,4.6,4.6,95,0.00,CLR,,0.00,WeatherDisplay:10.37,2013-08-05 06:04:00,
2013-08-04 23:09:00,53.0,51.6,29.90,WNW,292,4.6,4.6,95,0.00,CLR,,0.00,WeatherDisplay:10.37,2013-08-05 06:09:00,
2013-08-04 23:14:00,52.0,50.6,29.90,WNW,292,4.0,4.0,95,0.00,CLR,,0.00,WeatherDisplay:10.37,2013-08-05 06:14:00,
2013-08-04 23:19:00,52.0,50.9,29.89,WNW,292,5.8,5.8,96,0.00,CLR,,0.00,WeatherDisplay:10.37,2013-08-05 06:19:00,
2013-08-04 23:24:00,52.0,50.9,29.89,WNW,292,3.5,3.5,96,0.00,CLR,,0.00,WeatherDisplay:10.37,2013-08-05 06:24:00,
2013-08-04 23:29:00,52.0,50.9,29.90,WNW,292,3.5,3.5,96,0.00,CLR,,0.00,WeatherDisplay:10.37,2013-08-05 06:29:00,
2013-08-04 23:34:00,52.0,51.2,29.89,WNW,292,3.5,3.5,97,0.00,CLR,,0.00,WeatherDisplay:10.37,2013-08-05 06:34:00,
2013-08-04 23:39:00,52.0,51.2,29.89,WNW,292,3.5,3.5,97,0.00,CLR,,0.00,WeatherDisplay:10.37,2013-08-05 06:39:00,
2013-08-04 23:44:00,52.0,51.2,29.89,WNW,292,5.0,5.0,97,0.00,CLR,,0.00,WeatherDisplay:10.37,2013-08-05 06:44:00,
2013-08-04 23:49:00,52.0,51.2,29.89,WNW,292,3.5,3.5,97,0.00,CLR,,0.00,WeatherDisplay:10.37,2013-08-05 06:49:00,
2013-08-04 23:54:00,52.0,51.2,29.90,WNW,292,3.5,3.5,97,0.00,CLR,,0.00,WeatherDisplay:10.37,2013-08-05 06:54:00,
2013-08-04 23:59:00,51.0,50.5,29.90,WNW,292,4.0,4.0,98,0.00,CLR,,0.00,WeatherDisplay:10.37,2013-08-05 06:59:00,